sat.trackr.live / text

‹ back to catalog

STARLINK-1277

NORAD 45369 · 2020-019K

PAYLOAD ACTIVE UNKNOWN

§ Identity

Operator
Country
US
Launch date
2020-03-18
Launch site
AFETR
Launch vehicle
Mass (kg)
RCS (m²)

Purposes: comms

External: N2YO · Heavens-Above · Gunter

§ Orbital elements

Epoch: 2026-09-20T01:27:43.258176Z

Period
91.14 min
Inclination
53.0367°
Eccentricity
0.0004586
Mean motion
15.79966339 rev/d
Perigee alt
327.5 km
Apogee alt
333.6 km
Semi-major
6,708.7 km
B*
4.1261e-4
RAAN
278.2495°
Arg perigee
31.2168°
Mean anomaly
328.9125°
Rev number
36,037

§ Raw data

STARLINK-12771 45369U 20019K   26263.06091734  .00078191  00000+0  41261-3 0  99902 45369  53.0367 278.2495 0004586  31.2168 328.9125 15.79966339360371

JSON: /api/v1/satellites/45369 · /tle

For live sub-satellite position, see the globe view (requires WebGL).

§ Visibility from observer

Set your observer location to see the next 7 days of passes ≥ 10°. The values pass through the URL so the page stays shareable.

No JS? Fill the form by hand. The geolocation button needs JavaScript.